Total_Precipitation_Accumulation
1.12 1.38 1.02 0.94 1.24 1.24 1.32 1.06 1.12 0.98 1.04 1.19 1.02 1.00 1.27 1.72 1.88 1.43 1.19 1.13 1.08 1.08 1.00 0.83 0.69 0.52 0.34 0.26 0.26 0.34 0.53 0.74 0.71 0.63 0.48 0.32 0.22 0.24 0.29 0.31 0.32 0.31 0.28
0.98 1.40 1.82 1.00 1.04 1.73 2.09 1.70 1.41 1.18 1.05 1.12 1.02 0.91 1.00 1.20 1.63 1.90 1.50 1.44 1.39 1.29 1.05 0.89 0.88 0.75 0.68 0.60 0.60 0.53 0.56 0.60 0.77 0.76 0.61 0.51 0.43 0.36 0.20 0.16 0.19 0.23 0.27
0.67 1.11 1.93 1.47 1.35 1.84 2.03 1.88 1.76 1.68 1.56 1.58 1.92 1.58 1.60 1.48 1.70 2.11 1.91 1.78 1.54 1.46 1.65 1.97 1.65 1.14 1.16 1.26 1.30 1.36 1.34 1.14 0.92 0.81 0.87 0.61 0.42 0.32 0.36 0.25 0.21 0.21 0.21
0.52 0.65 0.99 1.36 1.51 1.11 1.20 1.80 2.89 3.14 2.27 1.99 2.81 3.42 3.12 2.95 2.72 2.93 2.66 2.11 1.84 1.72 1.88 2.22 2.82 3.28 2.84 2.01 1.71 1.57 1.43 1.53 1.39 1.35 1.09 0.91 0.65 0.49 0.35 0.25 0.29 0.35 0.38
0.47 0.41 0.59 0.85 0.83 0.82 0.89 1.12 1.73 2.56 2.57 2.66 2.81 3.21 3.07 2.45 2.16 2.21 2.78 2.81 2.55 2.09 1.89 1.93 2.04 2.04 2.23 2.70 2.47 2.01 1.90 1.79 1.55 1.30 1.07 0.97 0.92 0.93 0.82 0.46 0.27 0.29 0.35
0.27 0.42 0.40 0.50 0.58 0.74 0.91 0.83 1.13 1.62 2.33 2.57 2.62 2.85 2.96 3.18 2.72 2.21 2.40 2.27 1.90 1.85 1.74 1.58 1.49 1.50 1.53 1.63 1.99 2.01 1.74 1.66 1.72 1.68 1.57 1.30 1.21 1.00 1.14 1.05 0.67 0.58 0.44
0.54 0.48 0.76 0.62 0.69 0.82 0.67 0.70 0.98 1.15 1.63 1.83 2.20 2.36 2.02 2.22 2.25 2.01 1.93 2.04 2.00 1.76 1.68 1.56 1.60 1.51 1.52 1.56 1.64 1.77 1.70 1.53 1.41 1.37 1.42 1.61 1.63 1.56 1.56 1.56 1.16 0.83 0.54
0.77 0.69 0.98 1.15 1.17 0.97 0.94 0.62 0.89 1.00 1.01 1.04 1.14 1.52 1.84 2.25 2.08 1.83 1.65 1.56 1.45 1.56 1.90 1.82 1.79 1.87 1.85 1.83 1.85 1.87 1.88 1.79 1.72 1.74 1.68 1.62 1.64 1.83 1.98 2.05 2.09 1.93 1.21
1.18 0.88 0.93 1.21 1.15 0.91 1.02 0.95 0.93 1.06 0.90 0.97 0.73 0.71 0.84 1.00 1.18 1.12 1.09 1.18 1.34 1.22 1.34 1.47 1.39 1.41 1.44 1.41 1.49 1.50 1.45 1.59 1.67 1.58 1.51 1.51 1.37 1.42 1.59 1.91 2.34 2.98 2.67
1.33 1.11 0.94 0.95 0.86 0.72 0.89 0.98 0.89 0.69 0.64 0.81 0.79 0.46 0.61 0.80 0.94 0.82 0.62 0.52 0.60 0.68 0.75 0.85 0.91 0.98 1.06 1.21 1.32 1.33 1.40 1.53 1.58 1.64 1.72 1.71 1.67 1.66 1.51 1.49 1.73 2.07 2.55
0.90 0.88 0.77 0.68 0.62 0.44 0.61 0.86 0.76 0.65 0.58 0.66 0.87 0.63 0.58 0.62 0.85 0.80 0.46 0.31 0.24 0.24 0.22 0.20 0.27 0.36 0.40 0.55 0.77 0.93 1.12 1.31 1.54 1.85 2.12 2.26 2.34 2.49 2.47 2.58 2.76 2.92 3.15
0.57 0.57 0.62 0.60 0.42 0.48 0.72 1.25 1.14 0.80 0.54 0.55 0.66 0.86 0.74 0.67 0.70 0.75 0.53 0.44 0.35 0.29 0.26 0.25 0.25 0.27 0.29 0.30 0.29 0.36 0.44 0.53 0.66 0.88 1.12 1.21 1.35 1.59 1.70 1.92 2.12 2.49 2.98
0.24 0.31 0.47 0.78 0.27 0.49 0.81 1.25 1.20 0.85 0.63 0.67 0.62 0.81 1.07 0.90 0.80 0.64 0.63 0.54 0.60 0.70 0.89 0.61 0.46 0.40 0.37 0.32 0.35 0.42 0.50 0.60 0.70 0.79 0.85 0.97 1.10 1.13 1.18 1.23 1.33 1.42 1.61
0.25 0.30 0.19 0.18 0.29 0.80 0.96 0.99 1.33 1.19 1.04 0.93 0.85 0.80 1.11 1.09 1.01 0.90 0.92 0.83 0.75 0.73 0.93 1.36 0.96 0.85 0.79 0.68 0.55 0.55 0.59 0.65 0.82 0.90 0.97 1.04 1.26 1.38 1.49 1.82 2.03 1.92 1.82
0.18 0.17 0.19 0.24 0.33 1.09 1.05 1.29 1.31 1.61 1.50 1.27 1.22 1.11 0.84 1.05 1.00 0.88 1.08 1.02 0.88 0.93 0.83 0.89 0.94 0.86 0.77 0.96 0.91 0.82 0.91 0.91 1.11 1.41 1.36 1.51 1.74 1.89 1.68 1.46 1.30 1.43 1.47
0.16 0.15 0.22 0.30 0.41 0.85 1.10 1.16 1.62 2.03 1.78 1.56 1.33 1.24 0.92 1.04 1.20 1.12 1.13 1.04 1.03 1.21 1.06 1.08 0.97 0.93 1.02 1.86 1.75 1.42 1.28 1.37 1.38 1.78 1.84 1.80 2.20 1.71 1.87 1.79 1.70 1.67 1.67
0.14 0.13 0.22 0.63 0.43 0.67 1.02 1.28 1.59 1.72 1.88 2.10 1.68 1.27 0.88 0.88 0.91 0.85 0.91 0.87 0.93 1.08 1.09 1.05 1.16 1.11 1.24 2.11 1.78 1.56 1.12 1.33 1.58 1.47 1.51 1.28 1.28 1.56 1.12 1.46 1.53 1.43 1.53
0.15 0.40 0.59 0.61 0.41 0.77 1.32 1.21 1.55 1.26 1.52 2.11 1.84 1.53 1.26 1.13 1.04 0.94 1.01 0.93 0.98 1.15 1.20 1.15 1.32 1.47 1.87 2.33 1.81 1.64 1.04 0.93 1.05 0.89 0.86 0.85 0.81 1.01 1.12 0.99 1.07 1.15 1.26
0.49 0.49 0.64 0.76 0.60 0.68 0.95 1.00 1.16 1.37 1.73 2.19 2.22 1.98 1.66 1.64 1.76 1.80 1.55 1.34 1.39 1.44 1.44 1.36 1.35 1.43 1.74 2.15 1.87 1.40 1.01 0.96 0.97 0.91 0.90 1.05 0.94 1.47 1.65 1.26 1.18 1.21 1.16
0.51 0.70 0.91 0.92 0.71 0.68 0.87 1.37 1.93 1.78 1.74 1.66 1.72 1.72 1.64 1.41 1.43 1.33 1.47 1.40 1.31 1.31 1.36 1.32 1.24 1.36 1.22 1.55 1.46 1.29 0.88 0.82 0.79 0.69 0.68 1.06 0.96 1.18 1.09 0.86 0.66 0.72 0.63
0.43 0.47 0.66 0.76 0.72 0.82 1.34 1.66 1.79 1.80 1.76 1.76 1.62 1.48 1.32 1.43 1.30 1.30 1.17 1.18 1.06 0.93 0.91 0.88 0.84 0.72 0.66 0.68 0.91 0.75 0.60 0.63 0.64 0.52 0.49 0.56 0.95 1.02 0.98 0.92 0.69 0.77 0.84
0.30 0.20 0.47 0.98 1.20 1.10 1.17 1.11 1.11 1.09 0.95 1.01 0.91 0.97 0.86 0.84 0.89 0.74 0.80 0.79 0.73 0.69 0.64 0.59 0.53 0.43 0.45 0.62 0.74 0.64 0.51 0.54 0.45 0.45 0.44 0.60 1.05 1.06 0.94 0.76 0.62 0.66 0.63
0.22 0.10 0.17 0.23 0.36 0.43 0.43 0.52 0.57 0.57 0.60 0.60 0.57 0.63 0.60 0.50 0.46 0.44 0.44 0.45 0.41 0.39 0.41 0.43 0.46 0.47 0.47 0.52 0.69 0.57 0.48 0.53 0.46 0.35 0.47 0.68 0.85 0.84 0.65 0.47 0.48 0.43 0.32
0.08 0.09 0.12 0.16 0.26 0.31 0.35 0.34 0.23 0.30 0.41 0.57 0.58 0.61 0.50 0.53 0.44 0.40 0.41 0.47 0.54 0.57 0.56 0.53 0.48 0.43 0.44 0.46 0.50 0.62 0.55 0.50 0.41 0.38 0.45 0.57 0.71 0.74 0.60 0.52 0.41 0.28 0.30
0.08 0.14 0.21 0.25 0.25 0.25 0.34 0.38 0.32 0.31 0.38 0.43 0.43 0.41 0.32 0.39 0.38 0.46 0.51 0.48 0.40 0.54 0.58 0.53 0.46 0.48 0.45 0.45 0.70 0.78 0.67 0.58 0.67 0.80 0.51 0.54 0.54 0.55 0.51 0.49 0.45 0.44 0.56
0.10 0.08 0.16 0.26 0.37 0.43 0.46 0.45 0.41 0.38 0.36 0.33 0.30 0.37 0.31 0.28 0.27 0.27 0.47 0.77 0.70 0.75 0.60 0.60 0.67 0.63 0.68 0.76 0.77 0.76 0.79 0.89 0.94 0.88 0.54 0.45 0.47 0.48 0.51 0.58 0.67 0.68 0.75